COSMOS 1275 DEB, 42122

Orbit data source: Space-Track

COSMOS 1275 DEB, 42122 is space debris in LEO originally from a launch on Thu, 04 Jun 1981 UTC launched from the Plesetsk Missile And Space Complex (PKMTR). Debris objects in space refer to the collection of defunct objects orbiting the Earth. Examples of debris include non-operational satellites, rocket bodies, and fragments generated from explosions, collisions, or faulty payload assembly.

Loading next visibility...
Identifier
42122, 1981-053QJ
Orbit
LEO
Country
Flag of CISCIS
Related business
Manufacturer
Unknown
Mission
Spacecraft
Bus & Motor
Unknown
Mass
Unknown
Launch date (UTC)
1981-06-04 (45 years ago)
Launch vehicle
Unknown
Launch site
Plesetsk Missile And Space Complex (PKMTR)
Object type
Payload
Rocket body
Debris
Shape & HBR
Unknown shape, 0.1 m
Radar Cross Section
Small (<0.1 m²)

Expand to show TLE details & history
Last TLE update: 4 days ago

TLE from 4 days ago
0 COSMOS 1275 DEB
1 42122U 81053QJ  26251.42091169  .00001224  00000-0  99575-3 0  9993
2 42122  82.9366 300.0816 0087414 294.7893  64.4195 13.87451053644797
Epoch: 2026-09-08T10:06Z
TLE epoch observation values (Epoch: 2026-09-08T10:06:06.770Z)
Latitude
0.00004°
Longitude
161.06582°
Altitude
913.334 km
Speed
7.409 km/s
True Right ascension
20h 00m 19s
True Declination
0° 00' 00"
Sunlit
Object was in full shadow at epoch
Visualization orbit readout
Latitude
Unknown
Longitude
Unknown
Altitude
Unknown
Speed
Unknown
Apparent Right ascension
Unknown
Apparent Declination
Unknown
Sunlit
N/A
Visualization observer readout
Local Sidereal Time
01:06:29
Azimuth
Unknown
Elevation
Unknown
Doppler factor
Unknown
Orbital elements
Apogee altitude
998.633 km
Perigee altitude
870.784 km
Semi-major axis
7,312.846 km
Eccentricity
0.00874
Inclination
82.9366°
RAAN
300.0816°
Arg. of periapsis
294.7893°
True anomaly
65.32725°
Mean anomaly
64.4195°
Eccentric anomaly
64.87295°
Mean motion
3.47067 °/min
Orbital period
103.73 mins
BSTAR
0.00099575
Loading maneuver chart data...
Computing Atmospheric mass density...

Documentation

Showing up to 5 results
|